Regional Weather Roundup
Issued by NWS

Home | Current Version | Previous Version | Text Only | Print | Product List | Glossary On
Versions: 1 2 3 4 5 6 7 8 9 10 11 12 13 14 15 16 17 18 19 20 21 22 23 24 25 26 27 28 29 30 31 32 33 34 35 36 37 38 39 40 41 42 43 44 45 46 47 48 49 50
000
ASUS43 KFSD 230110
RWRSD

WEATHER ROUNDUP FOR SOUTH DAKOTA
NATIONAL WEATHER SERVICE SIOUX FALLS SD
800 PM CDT SAT APR 22 2017

NOTE: "FAIR" INDICATES FEW OR NO CLOUDS BELOW 12,000 FEET WITH NO
SIGNIFICANT WEATHER AND/OR OBSTRUCTIONS TO VISIBILITY.


SDZ001>005-009-010-012>017-230200-
NORTHWEST AND NORTH CENTRAL SOUTH DAKOTA

CITY           SKY/WX    TMP DP  RH WIND       PRES   REMARKS
BUFFALO          N/A     60  40  47 S7        29.99F
FAITH            N/A     59  39  47 S7        30.06F
MOBRIDGE       CLEAR     66  36  32 SW8       30.03F
$$

SDZ012>016-024>037-041>051-057-063-072>074-230200-
SOUTHWEST AND SOUTH CENTRAL SOUTH DAKOTA

CITY           SKY/WX    TMP DP  RH WIND       PRES   REMARKS
RAPID CTY ARPT CLEAR     61  34  36 S14       30.06F
PIERRE         CLEAR     63  35  35 SW7       30.08F
CUSTER         CLEAR     51  28  41 SW8       30.12F
ELLSWORTH AFB  CLEAR     61  32  33 S13       30.04  HAZE
PHILIP         CLEAR     63  37  38 S5        30.07F
PINE RIDGE     CLEAR     61  31  32 S10       30.12F
SPEARFISH      FAIR      57  34  41 SW7G17    30.06F
WINNER         FAIR      63  33  32 S10       30.13F
$$

SDZ004>011-016>023-039-040-230200-
NORTHEAST SOUTH DAKOTA

CITY           SKY/WX    TMP DP  RH WIND       PRES   REMARKS
ABERDEEN       CLEAR     64  29  26 SW9       30.06F
WATERTOWN      CLEAR     59  37  44 SW10      30.10F
BROOKINGS      CLEAR     61  38  42 MISG        N/A
SISSETON         N/A     64  38  38 W8        30.06F
$$

SDZ017-020-022-023-036>040-048>070-230200-
SOUTHEAST SOUTH DAKOTA

CITY           SKY/WX    TMP DP  RH WIND       PRES   REMARKS
SIOUX FALLS    PTCLDY    62  38  40 W6        30.17R
HURON          CLEAR     63  35  35 SW10      30.11F
CHAMBERLAIN    CLEAR     63  37  38 SE7       30.13F
MITCHELL       CLEAR     64  37  36 SW5       30.15F
YANKTON        CLEAR     63  34  34 CALM      30.17S
$$

ABBREVIATIONS USED IN REMARKS
   TC - TEMPERATURE IN CELSIUS
  WCI - WIND CHILL INDEX
   HX - HEAT INDEX
  VSB - VISIBILITY





USA.gov is the U.S. government's official web portal to all federal, state and local government web resources and services.